SWA1751 KHOU-KSAT

Flight info

Callsign SWA1751
Flight time 0h 43m
Altitude 28000
Route RETYR8 WAILN QERVO3
Aircraft B737/M-SADE2E3GIJ4RWZ/LB1D1

Departure

Time 2026-05-09 02:38
Airport William P. Hobby Airport (KHOU)

Arrival

Time 2026-05-09 03:21
Airport San Antonio International Airport (KSAT)
Time Latitude Longitude Altitude Speed Heading
2026-05-09 02:08 29.65223 -95.27742 51 ft 0 kts 349°
2026-05-09 02:22 29.65215 -95.27740 47 ft 2 kts 349°
2026-05-09 02:23 29.65199 -95.27736 48 ft 2 kts 349°
2026-05-09 02:23 29.65183 -95.27733 48 ft 2 kts 349°
2026-05-09 02:23 29.65168 -95.27729 50 ft 0 kts 348°
2026-05-09 02:29 29.65169 -95.27729 47 ft 1 kts 348°
2026-05-09 02:30 29.65209 -95.27757 49 ft 2 kts 292°
2026-05-09 02:30 29.65190 -95.27774 51 ft 7 kts 203°
2026-05-09 02:30 29.65175 -95.27805 51 ft 0 kts 251°
2026-05-09 02:31 29.65175 -95.27807 51 ft 1 kts 251°
2026-05-09 02:31 29.65166 -95.27830 48 ft 5 kts 234°
2026-05-09 02:31 29.65138 -95.27856 51 ft 5 kts 227°
2026-05-09 02:31 29.65125 -95.27900 51 ft 7 kts 268°
2026-05-09 02:32 29.65151 -95.27955 51 ft 9 kts 307°
2026-05-09 02:32 29.65200 -95.28016 52 ft 12 kts 310°
2026-05-09 02:32 29.65262 -95.28091 52 ft 14 kts 315°
2026-05-09 02:32 29.65330 -95.28187 52 ft 18 kts 293°
2026-05-09 02:33 29.65313 -95.28249 52 ft 16 kts 249°
2026-05-09 02:33 29.65293 -95.28317 50 ft 0 kts 244°
2026-05-09 02:33 29.65293 -95.28318 50 ft 0 kts 244°
2026-05-09 02:33 29.65276 -95.28340 51 ft 9 kts 221°
2026-05-09 02:34 29.65165 -95.28270 49 ft 30 kts 133°
2026-05-09 02:34 29.64904 -95.27960 52 ft 51 kts 134°
2026-05-09 02:34 29.64785 -95.27838 52 ft 6 kts 179°
2026-05-09 02:34 29.64756 -95.27872 52 ft 6 kts 257°
2026-05-09 02:35 29.64742 -95.27933 50 ft 12 kts 236°
2026-05-09 02:35 29.64727 -95.27954 51 ft 0 kts 227°
2026-05-09 02:35 29.64690 -95.27996 52 ft 28 kts 224°
2026-05-09 02:35 29.64542 -95.28159 51 ft 29 kts 223°
2026-05-09 02:36 29.64401 -95.28315 51 ft 27 kts 224°
2026-05-09 02:36 29.64268 -95.28464 50 ft 28 kts 223°
2026-05-09 02:36 29.64132 -95.28607 51 ft 25 kts 227°
2026-05-09 02:36 29.63993 -95.28604 51 ft 23 kts 133°
2026-05-09 02:37 29.63966 -95.28469 49 ft 15 kts 51°
2026-05-09 02:37 29.64125 -95.28299 49 ft 73 kts 44°
2026-05-09 02:37 29.64719 -95.27651 52 ft 159 kts 44°
2026-05-09 02:37 29.65664 -95.26633 448 ft 203 kts 47°
2026-05-09 02:38 29.66757 -95.25585 1566 ft 206 kts 29°
2026-05-09 02:38 29.68198 -95.25217 2379 ft 224 kts 356°
2026-05-09 02:38 29.69737 -95.25795 2719 ft 243 kts 323°
2026-05-09 02:38 29.70838 -95.27265 3324 ft 245 kts 295°
2026-05-09 02:39 29.71612 -95.29076 3862 ft 261 kts 292°
2026-05-09 02:39 29.72367 -95.30977 4596 ft 268 kts 292°
2026-05-09 02:39 29.73136 -95.32938 5499 ft 270 kts 291°
2026-05-09 02:39 29.73914 -95.34934 6424 ft 272 kts 291°
2026-05-09 02:40 29.74684 -95.36914 7278 ft 275 kts 291°
2026-05-09 02:40 29.75467 -95.38928 8237 ft 277 kts 291°
2026-05-09 02:40 29.76261 -95.40958 9179 ft 281 kts 291°
2026-05-09 02:40 29.76730 -95.43129 10107 ft 280 kts 271°
2026-05-09 02:41 29.76758 -95.45418 10682 ft 298 kts 268°
2026-05-09 02:41 29.76740 -95.47926 10885 ft 326 kts 268°
2026-05-09 02:41 29.76729 -95.50584 11487 ft 336 kts 268°
2026-05-09 02:41 29.76737 -95.53285 12339 ft 339 kts 269°
2026-05-09 02:42 29.76764 -95.56008 13244 ft 341 kts 269°
2026-05-09 02:42 29.76803 -95.58741 14075 ft 343 kts 270°
2026-05-09 02:42 29.76850 -95.61494 14900 ft 344 kts 270°
2026-05-09 02:42 29.76902 -95.64249 15737 ft 346 kts 270°
2026-05-09 02:43 29.76957 -95.67023 16570 ft 347 kts 270°
2026-05-09 02:43 29.77013 -95.69814 17394 ft 349 kts 270°
2026-05-09 02:43 29.77070 -95.72622 18209 ft 352 kts 271°
2026-05-09 02:43 29.77126 -95.75446 18886 ft 354 kts 270°
2026-05-09 02:44 29.77183 -95.78293 19582 ft 356 kts 270°
2026-05-09 02:44 29.77239 -95.81147 20288 ft 358 kts 269°
2026-05-09 02:44 29.77295 -95.84028 20969 ft 360 kts 269°
2026-05-09 02:44 29.77350 -95.86879 21613 ft 363 kts 269°
2026-05-09 02:45 29.77405 -95.89795 22250 ft 366 kts 268°
2026-05-09 02:45 29.77460 -95.92731 22901 ft 368 kts 268°
2026-05-09 02:45 29.77515 -95.95683 23519 ft 370 kts 268°
2026-05-09 02:45 29.77570 -95.98658 24027 ft 373 kts 268°
2026-05-09 02:46 29.77626 -96.01686 24550 ft 375 kts 268°
2026-05-09 02:46 29.77679 -96.04648 25073 ft 376 kts 268°
2026-05-09 02:46 29.77734 -96.07673 25581 ft 378 kts 267°
2026-05-09 02:46 29.77788 -96.10708 26053 ft 380 kts 267°
2026-05-09 02:47 29.77841 -96.13760 26506 ft 383 kts 267°
2026-05-09 02:47 29.77893 -96.16832 26963 ft 385 kts 267°
2026-05-09 02:47 29.78013 -96.19923 27456 ft 388 kts 269°
2026-05-09 02:47 29.78232 -96.23014 27842 ft 388 kts 270°
2026-05-09 02:48 29.78475 -96.26115 27836 ft 388 kts 270°
2026-05-09 02:48 29.78723 -96.29202 27850 ft 387 kts 270°
2026-05-09 02:48 29.78965 -96.32279 27851 ft 386 kts 270°
2026-05-09 02:48 29.79203 -96.35361 27855 ft 386 kts 270°
2026-05-09 02:49 29.79436 -96.38441 27844 ft 386 kts 270°
2026-05-09 02:49 29.79666 -96.41521 27844 ft 386 kts 270°
2026-05-09 02:49 29.79895 -96.44603 27835 ft 386 kts 270°
2026-05-09 02:49 29.80124 -96.47690 27820 ft 386 kts 270°
2026-05-09 02:50 29.80349 -96.50724 27811 ft 386 kts 270°
2026-05-09 02:50 29.80575 -96.53799 27794 ft 386 kts 270°
2026-05-09 02:50 29.80800 -96.56879 27793 ft 386 kts 270°
2026-05-09 02:50 29.81025 -96.59955 27780 ft 385 kts 270°
2026-05-09 02:51 29.81250 -96.63027 27770 ft 385 kts 270°
2026-05-09 02:51 29.81476 -96.66103 27764 ft 385 kts 270°
2026-05-09 02:51 29.81701 -96.69181 27764 ft 385 kts 270°
2026-05-09 02:51 29.81926 -96.72251 27770 ft 385 kts 270°
2026-05-09 02:52 29.82151 -96.75328 27787 ft 385 kts 270°
2026-05-09 02:52 29.82375 -96.78410 27774 ft 385 kts 270°
2026-05-09 02:52 29.82598 -96.81474 27784 ft 385 kts 270°
2026-05-09 02:52 29.82820 -96.84550 27787 ft 385 kts 270°
2026-05-09 02:53 29.83042 -96.87621 27794 ft 385 kts 270°
2026-05-09 02:53 29.83263 -96.90698 27793 ft 385 kts 270°
2026-05-09 02:53 29.83484 -96.93767 27804 ft 385 kts 270°
2026-05-09 02:53 29.83703 -96.96840 27815 ft 385 kts 270°
2026-05-09 02:54 29.83922 -96.99914 27824 ft 385 kts 270°
2026-05-09 02:54 29.84140 -97.02988 27813 ft 385 kts 270°
2026-05-09 02:54 29.84357 -97.06039 27808 ft 379 kts 269°
2026-05-09 02:54 29.84572 -97.09053 27820 ft 374 kts 269°
2026-05-09 02:55 29.84782 -97.12032 27824 ft 373 kts 269°
2026-05-09 02:55 29.84990 -97.15015 27821 ft 374 kts 269°
2026-05-09 02:55 29.85198 -97.18000 27534 ft 375 kts 269°
2026-05-09 02:55 29.85405 -97.20980 27033 ft 371 kts 270°
2026-05-09 02:56 29.85609 -97.23913 26496 ft 365 kts 270°
2026-05-09 02:56 29.85808 -97.26774 25916 ft 361 kts 270°
2026-05-09 02:56 29.86006 -97.29645 25323 ft 358 kts 270°
2026-05-09 02:56 29.86202 -97.32500 24715 ft 356 kts 270°
2026-05-09 02:57 29.86396 -97.35335 24104 ft 354 kts 271°
2026-05-09 02:57 29.86588 -97.38139 23498 ft 348 kts 271°
2026-05-09 02:57 29.86776 -97.40914 22830 ft 348 kts 271°
2026-05-09 02:57 29.86964 -97.43678 22199 ft 343 kts 271°
2026-05-09 02:58 29.87149 -97.46413 21605 ft 341 kts 272°
2026-05-09 02:58 29.87332 -97.49130 21021 ft 340 kts 272°
2026-05-09 02:58 29.87514 -97.51840 20432 ft 338 kts 272°
2026-05-09 02:58 29.87695 -97.54539 19875 ft 336 kts 272°
2026-05-09 02:59 29.87872 -97.57182 19285 ft 327 kts 272°
2026-05-09 02:59 29.88046 -97.59777 18725 ft 322 kts 273°
2026-05-09 02:59 29.88216 -97.62346 18160 ft 321 kts 273°
2026-05-09 02:59 29.88387 -97.64925 17551 ft 325 kts 273°
2026-05-09 03:00 29.88562 -97.67582 16983 ft 337 kts 273°
2026-05-09 03:00 29.88738 -97.70253 16448 ft 328 kts 273°
2026-05-09 03:00 29.88909 -97.72824 15901 ft 318 kts 273°
2026-05-09 03:00 29.89075 -97.75343 15377 ft 313 kts 273°
2026-05-09 03:01 29.89184 -97.76999 15024 ft 313 kts 273°
2026-05-09 03:01 29.89347 -97.79511 14475 ft 317 kts 273°
2026-05-09 03:01 29.89512 -97.82056 13908 ft 317 kts 272°
2026-05-09 03:01 29.89664 -97.84564 13349 ft 313 kts 269°
2026-05-09 03:02 29.89369 -97.87047 13128 ft 314 kts 252°
2026-05-09 03:02 29.88521 -97.89360 13058 ft 312 kts 244°
2026-05-09 03:02 29.87582 -97.91549 12998 ft 295 kts 244°
2026-05-09 03:02 29.86696 -97.93576 12983 ft 271 kts 244°
2026-05-09 03:03 29.85886 -97.95444 12988 ft 250 kts 244°
2026-05-09 03:03 29.85135 -97.97195 12842 ft 240 kts 244°
2026-05-09 03:03 29.84408 -97.98908 12494 ft 237 kts 244°
2026-05-09 03:03 29.83686 -98.00616 12032 ft 239 kts 244°
2026-05-09 03:04 29.82952 -98.02355 11423 ft 249 kts 244°
2026-05-09 03:04 29.82138 -98.04284 11311 ft 287 kts 244°
2026-05-09 03:04 29.81209 -98.06484 11085 ft 319 kts 244°
2026-05-09 03:04 29.80239 -98.08779 10864 ft 318 kts 244°
2026-05-09 03:05 29.79279 -98.11048 10638 ft 311 kts 244°
2026-05-09 03:05 29.78359 -98.13223 10497 ft 300 kts 244°
2026-05-09 03:05 29.77465 -98.15336 10414 ft 287 kts 244°
2026-05-09 03:05 29.76620 -98.17336 10288 ft 269 kts 244°
2026-05-09 03:06 29.75805 -98.19262 9912 ft 268 kts 244°
2026-05-09 03:06 29.74997 -98.21173 9651 ft 264 kts 244°
2026-05-09 03:06 29.74203 -98.23047 9462 ft 259 kts 243°
2026-05-09 03:06 29.73414 -98.24911 9282 ft 260 kts 243°
2026-05-09 03:07 29.72616 -98.26796 9101 ft 262 kts 243°
2026-05-09 03:07 29.71946 -98.28729 8905 ft 261 kts 257°
2026-05-09 03:07 29.71704 -98.30748 8502 ft 257 kts 262°
2026-05-09 03:07 29.71533 -98.32829 7848 ft 260 kts 263°
2026-05-09 03:08 29.71367 -98.34914 7310 ft 262 kts 263°
2026-05-09 03:08 29.71198 -98.36993 6842 ft 261 kts 263°
2026-05-09 03:08 29.71024 -98.39070 6404 ft 260 kts 263°
2026-05-09 03:08 29.70845 -98.41145 5906 ft 260 kts 263°
2026-05-09 03:09 29.70672 -98.43225 5537 ft 262 kts 263°
2026-05-09 03:09 29.70508 -98.45301 5376 ft 260 kts 263°
2026-05-09 03:09 29.70348 -98.47374 5252 ft 260 kts 263°
2026-05-09 03:09 29.70196 -98.49399 5008 ft 258 kts 263°
2026-05-09 03:10 29.70047 -98.51483 4762 ft 255 kts 263°
2026-05-09 03:10 29.69910 -98.53526 4544 ft 257 kts 263°
2026-05-09 03:10 29.69776 -98.55584 4291 ft 257 kts 263°
2026-05-09 03:10 29.69641 -98.57628 4069 ft 259 kts 263°
2026-05-09 03:11 29.69505 -98.59701 4031 ft 259 kts 263°
2026-05-09 03:11 29.69372 -98.61745 3827 ft 253 kts 263°
2026-05-09 03:11 29.69241 -98.63761 3329 ft 254 kts 263°
2026-05-09 03:11 29.69114 -98.65808 3157 ft 261 kts 263°
2026-05-09 03:12 29.68986 -98.67897 3031 ft 262 kts 263°
2026-05-09 03:12 29.68858 -98.69977 2980 ft 258 kts 263°
2026-05-09 03:12 29.68739 -98.71995 2973 ft 255 kts 263°
2026-05-09 03:12 29.68237 -98.73917 2963 ft 251 kts 234°
2026-05-09 03:13 29.65440 -98.75644 2958 ft 224 kts 174°
2026-05-09 03:13 29.64061 -98.75023 2961 ft 209 kts 140°
2026-05-09 03:13 29.63311 -98.73678 2959 ft 198 kts 103°
2026-05-09 03:14 29.63437 -98.72176 2962 ft 188 kts 65°
2026-05-09 03:14 29.64283 -98.71058 2996 ft 186 kts 44°
2026-05-09 03:14 29.65251 -98.70072 3014 ft 186 kts 44°
2026-05-09 03:14 29.66109 -98.68966 2971 ft 185 kts 70°
2026-05-09 03:15 29.66214 -98.67556 3002 ft 178 kts 107°
2026-05-09 03:15 29.65814 -98.66222 3006 ft 176 kts 113°
2026-05-09 03:15 29.65373 -98.64909 3008 ft 176 kts 113°
2026-05-09 03:15 29.64928 -98.63598 3001 ft 176 kts 113°
2026-05-09 03:16 29.64491 -98.62306 3016 ft 172 kts 114°
2026-05-09 03:16 29.64059 -98.61020 3005 ft 171 kts 113°
2026-05-09 03:16 29.63496 -98.59955 2966 ft 143 kts 145°
2026-05-09 03:16 29.62748 -98.59373 2988 ft 124 kts 138°
2026-05-09 03:17 29.62155 -98.58658 3009 ft 124 kts 136°
2026-05-09 03:17 29.61547 -98.57937 2915 ft 127 kts 134°
2026-05-09 03:17 29.60961 -98.57202 2769 ft 125 kts 133°
2026-05-09 03:17 29.60412 -98.56433 2582 ft 121 kts 129°
2026-05-09 03:18 29.59869 -98.55711 2502 ft 120 kts 129°
2026-05-09 03:18 29.59315 -98.54967 2305 ft 124 kts 132°
2026-05-09 03:18 29.58734 -98.54241 2054 ft 123 kts 131°
2026-05-09 03:18 29.58173 -98.53520 1915 ft 119 kts 130°
2026-05-09 03:19 29.57596 -98.52803 1866 ft 125 kts 131°
2026-05-09 03:19 29.57023 -98.52043 1677 ft 126 kts 131°
2026-05-09 03:19 29.56442 -98.51310 1456 ft 123 kts 131°
2026-05-09 03:19 29.55871 -98.50587 1278 ft 121 kts 130°
2026-05-09 03:20 29.55307 -98.49865 1137 ft 123 kts 130°
2026-05-09 03:20 29.54732 -98.49128 1005 ft 124 kts 129°
2026-05-09 03:20 29.54162 -98.48403 844 ft 118 kts 132°
2026-05-09 03:20 29.53673 -98.47778 803 ft 87 kts 132°
2026-05-09 03:21 29.53367 -98.47386 798 ft 53 kts 131°
2026-05-09 03:21 29.53184 -98.47275 798 ft 1 kts 166°
2026-05-09 03:21 29.53181 -98.47274 798 ft 3 kts 165°
2026-05-09 03:21 29.53169 -98.47270 798 ft 0 kts 164°
2026-05-09 03:22 29.53168 -98.47270 798 ft 1 kts 164°
2026-05-09 03:23 29.53134 -98.47256 798 ft 10 kts 157°
2026-05-09 03:23 29.53063 -98.47222 796 ft 12 kts 191°
2026-05-09 03:23 29.53009 -98.47257 795 ft 1 kts 202°
2026-05-09 03:23 29.52995 -98.47254 795 ft 5 kts 168°
2026-05-09 03:24 29.52951 -98.47242 794 ft 5 kts 166°
2026-05-09 03:24 29.52945 -98.47240 794 ft 0 kts 166°